Powrót do katalogu

CZ-4 DEB

AktywnySSO
NORAD 28068·DEBRIS·🇨🇳 China

Wystrzelony Oct 14, 1999 z Taiyuan Satellite Launch Center

Loading…

Następne Przeloty (najbliższe 24 godziny)

TLE

ŚwieżeSource: Space-Track

Epoka: Sep 13, 2026, 03:20 UTC

1 28068U 99057MY  26256.13902243  .00000919  00000-0  22268-3 0  9991
2 28068  98.4900 322.8478 0077556 332.7494  26.9642 14.53710156696982

Śledź CZ-4 DEB w czasie rzeczywistym z AllMySat

Download on the App Store